Regional Weather Roundup
Issued by NWS

Home | Current Version | Previous Version | Graphics & Text | Print | Product List | Glossary Off
Versions: 1 2 3 4 5 6 7 8 9 10 11 12 13 14 15 16 17 18 19 20 21 22 23 24 25 26 27 28 29 30 31 32 33 34 35 36 37 38 39 40 41 42 43 44 45 46 47 48 49 50

000
ASUS43 KTOP 011208
RWRKS

WEATHER ROUNDUP FOR KANSAS
NATIONAL WEATHER SERVICE GOODLAND KS
700 AM CDT FRI AUG 01 2014

NOTE:  "FAIR" INDICATES FEW OR NO CLOUDS BELOW 12,000 FEET WITH NO
SIGNIFICANT WEATHER AND/OR OBSTRUCTIONS TO VISIBILITY.

KSZ001>006-013>018-027>032-041>047-011300-
NORTHWEST KANSAS

CITY           SKY/WX    TMP DP  RH WIND       PRES   REMARKS
GOODLAND       CLEAR     55  52  89 NW6       30.18S
6HR MIN TEMP:  54; 6HR MAX TEMP:  64;

HAYS           CLEAR     59  52  77 W5        30.07S
HILL CITY      CLEAR     59  55  87 W5        30.10R
6HR MIN TEMP:  58; 6HR MAX TEMP:  73;

RUSSELL        CLEAR     61  57  87 SW8       30.05R
6HR MIN TEMP:  60; 6HR MAX TEMP:  68;

$$

KSZ061>065-074>080-084>089-011300-
SOUTHWEST KANSAS

CITY           SKY/WX    TMP DP  RH WIND       PRES   REMARKS
DODGE CITY     PTCLDY    62  56  80 SW7       30.13S
6HR MIN TEMP:  62; 6HR MAX TEMP:  66;

ELKHART          N/A     60  54  80 W7          N/A
GARDEN CITY    CLEAR     59  56  89 W7        30.15R
6HR MIN TEMP:  57; 6HR MAX TEMP:  64;

GREAT BEND       N/A     63  55  77 SW10      30.06S
LIBERAL        CLEAR     59  52  77 W5        30.17R
PRATT          CLEAR     61  55  82 SW8       30.11S
$$

KSZ066>073-081>083-090>101-011300-
SOUTHEAST KANSAS

CITY           SKY/WX    TMP DP  RH WIND       PRES   REMARKS
CHANUTE        FOG       62  61  96 SE5       30.08F VSB<1/4
6HR MIN TEMP:  60; 6HR MAX TEMP:  68;

COFFEYVILLE    FOG       66  66 100 S3        30.08S VSB 1/4
6HR MIN TEMP:  63; 6HR MAX TEMP:  68;

HUTCHINSON     CLEAR     64  57  78 S5        30.07S
6HR MIN TEMP:  58; 6HR MAX TEMP:  67;

MEDICINE LODGE   N/A     60  58  92 CALM      30.10R
NEWTON         CLEAR     63  57  82 SW9       30.10S
PARSONS        FOG       64  62  93 CALM      30.10R VSB<1/4
6HR MIN TEMP:  59; 6HR MAX TEMP:  64;

WICHITA INTL   PTCLDY    61  59  93 S5        30.07S
6HR MIN TEMP:  61; 6HR MAX TEMP:  66;

WICHITA JABRA  CLEAR     65  63  93 SW7       30.07S
6HR MIN TEMP:  64; 6HR MAX TEMP:  68;

WICHITA MCCONL CLEAR     62  62 100 VRB7      30.08S
WINFIELD       FOG       63  63 100 CALM      30.09F VSB 1/2
6HR MIN TEMP:  61; 6HR MAX TEMP:  66;

$$

KSZ007>012-019>026-033>040-048>060-102>105-011300-
NORTHEAST KANSAS

CITY           SKY/WX    TMP DP  RH WIND       PRES   REMARKS
CONCORDIA      CLEAR     61  57  87 W5        30.03R
6HR MIN TEMP:  60; 6HR MAX TEMP:  69;

EMPORIA        CLOUDY    64  63  96 CALM      30.08R
6HR MIN TEMP:  59; 6HR MAX TEMP:  66;

LAWRENCE       MOCLDY    65  62  90 NE3       30.08R
6HR MIN TEMP:  63; 6HR MAX TEMP:  67;

MANHATTAN      MOCLDY    67  60  78 CALM      30.05R
6HR MIN TEMP:  64; 6HR MAX TEMP:  69;

MARYSVILLE     CLEAR     66  61  82 SE7       30.02F
OLATHE IND     CLOUDY    66  61  84 S3        30.08S
6HR MIN TEMP:  62; 6HR MAX TEMP:  67;

OLATHE EXE     CLOUDY    67  60  78 CALM      30.07S
6HR MIN TEMP:  64; 6HR MAX TEMP:  68;

SALINA         CLEAR     61  55  81 S5        30.04R
6HR MIN TEMP:  61; 6HR MAX TEMP:  67;

TOPEKA BILLARD LGT RAIN  67  63  87 NE5       30.07S
6HR MIN TEMP:  64; 6HR MAX TEMP:  70; 6HR PCP:  0.06;

TOPEKA FORBES  CLOUDY    64  60  87 SE5       30.07S
6HR MIN TEMP:  63; 6HR MAX TEMP:  67;

$$



USA.gov is the U.S. government's official web portal to all federal, state and local government web resources and services.